Regional Weather Roundup
Issued by NWS

Home | Current Version | Previous Version | Text Only | Print | Product List | Glossary On
Versions: 1 2 3 4 5 6 7 8 9 10 11 12 13 14 15 16 17 18 19 20 21 22 23 24 25 26 27 28 29 30 31 32 33 34 35 36 37 38 39 40 41 42 43 44 45 46 47 48 49 50
000
ASUS43 KBIS 020520
RWRND

NORTH DAKOTA REGIONAL WEATHER ROUNDUP
NATIONAL WEATHER SERVICE BISMARCK ND
1200 AM CDT SAT AUG 02 2014

NOTE: "FAIR" INDICATES FEW OR NO CLOUDS BELOW 12,000 FEET WITH NO
SIGNIFICANT WEATHER AND/OR OBSTRUCTIONS TO VISIBILITY.


NDZ001>003-009>011-017-020600-
NORTHWEST NORTH DAKOTA

CITY           SKY/WX    TMP DP  RH WIND       PRES   REMARKS
WILLISTON      PTCLDY    71  55  56 W12       30.12R
MINOT          CLEAR     64  60  87 CALM      30.08S
MINOT AFB      CLEAR     61  60  99 CALM      30.08R
$$

NDZ018>021-031>035-040>046-020600-
SOUTHWEST NORTH DAKOTA

CITY           SKY/WX    TMP DP  RH WIND       PRES   REMARKS
BISMARCK       MOCLDY    65  62  90 SE3       30.10R
DICKINSON      CLEAR     63  57  81 E7        30.12R
GARRISON         N/A     66  62  87 NE3       30.08S
HETTINGER ARPT CLEAR     66  59  78 E16       30.12R
$$

NDZ004>008-012>016-024-026-027-054-020600-
NORTHEAST NORTH DAKOTA

CITY           SKY/WX    TMP DP  RH WIND       PRES   REMARKS
GRAND FORKS    CLEAR     63  59  87 CALM      30.06S
GRND FRKS AFB  CLEAR     64  64  99 S3        30.07S
DEVILS LAKE    CLEAR     70  59  68 SE7       30.07S
$$

NDZ022-023-025-028>030-036>039-047>053-020600-
SOUTHEAST NORTH DAKOTA

CITY           SKY/WX    TMP DP  RH WIND       PRES   REMARKS
FARGO          CLEAR     63  58  83 NE3       30.06F
JAMESTOWN      MOCLDY    68  59  73 SE8       30.09R
$$




USA.gov is the U.S. government's official web portal to all federal, state and local government web resources and services.